Home > Weather > Hobart > Past weeks

Flag for Australia Weather for the Past 2 Weeks in Hobart, Tasmania, Australia

Now
59 °F

Passing clouds.


Feels Like: 58 °F
Forecast: 53 / 66 °F
Wind: 8 mph from North

Location: Hobart Airport

Current Time: Feb 14, 2016 at 4:38:47 AM

Latest Report: Feb 14, 2016 at 4:00 AM


Visibility: N/A

Pressure: 29.59 "Hg

Humidity: 55%

Dew point: 43 °F

Location of HobartLocation

Historic Weather in Hobart — Graph

°F

Hobart Temperature Yesterday

Maximum temperature yesterday: 82 °F (at 1:00 PM)
Minimum temperature yesterday: 63 °F (at 5:30 AM)
Average temperature yesterday: 70 °F

High & Low Weather Summary for the Past Weeks

 TemperatureHumidityPressure
High88 °F (Feb 2, 4:00 PM)100% (Feb 1, 6:30 AM)30.24 "Hg (Feb 1, 6:30 AM)
Low52 °F (Feb 4, 4:30 AM)19% (Feb 2, 5:30 PM)29.53 "Hg (Feb 2, 5:30 PM)
Average67 °F67%29.92 "Hg
* Reported Jan 30 3:00 AM — Feb 14 3:00 AM, Hobart, Weather by CustomWeather, © 2016

Note: Actual official high and low records may vary slightly from our data, if they occured in-between our weather recording intervals... More about our weather records

Advertising

Hobart Weather History for the Previous 24 Hours

 ConditionsComfort  
Time TempWeatherWind HumidityBarometerVisibility
3:00 AM
Sun, Feb 14
61 °FPassing clouds.16 mph48%29.59 "HgN/A
2:30 AM61 °FClear.17 mph55%29.59 "Hg10 mi
2:00 AM61 °FClear.14 mph52%29.59 "Hg10 mi
1:30 AM61 °FPassing clouds.15 mph52%29.59 "HgN/A
1:00 AM63 °FPassing clouds.20 mph49%29.59 "HgN/A
12:30 AM63 °FPassing clouds.15 mph45%29.59 "HgN/A
12:00 AM63 °FPassing clouds.13 mph52%29.59 "HgN/A
11:30 PM
Sat, Feb 13
64 °FPassing clouds.8 mph56%29.59 "HgN/A
11:00 PM64 °FPartly cloudy.7 mph78%29.59 "HgN/A
10:30 PM66 °FPassing clouds.8 mph73%29.59 "HgN/A
10:00 PM66 °FPartly cloudy.7 mph73%29.59 "HgN/A
9:00 PM64 °FPassing clouds.9 mph78%29.59 "HgN/A
8:30 PM64 °FPassing clouds.8 mph78%29.56 "HgN/A
8:00 PM66 °FScattered clouds.17 mph78%29.56 "HgN/A
7:30 PM66 °FScattered clouds.22 mph78%29.53 "HgN/A
7:00 PM68 °FPassing clouds.22 mph78%29.53 "HgN/A
6:54 PM70 °FPassing clouds.20 mph69%29.53 "HgN/A
6:30 PM77 °FPassing clouds.7 mph39%29.53 "HgN/A
6:00 PM75 °FSunny.8 mph44%29.53 "Hg10 mi
5:30 PM77 °FSunny.10 mph44%29.53 "Hg10 mi
5:00 PM77 °FSunny.17 mph44%29.53 "Hg10 mi
4:30 PM77 °FSunny.16 mph42%29.53 "Hg10 mi
4:00 PM77 °FSunny.16 mph42%29.53 "Hg10 mi
3:00 PM77 °FSunny.18 mph39%29.53 "Hg10 mi
2:30 PM79 °FPassing clouds.9 mph37%29.53 "HgN/A
2:00 PM82 °FSunny.13 mph21%29.53 "Hg10 mi
1:00 PM82 °FSunny.13 mph21%29.56 "Hg10 mi
12:30 PM81 °FPassing clouds.16 mph24%29.59 "HgN/A
12:00 PM79 °FPassing clouds.17 mph26%29.62 "HgN/A
11:00 AM73 °FPassing clouds.15 mph36%29.62 "HgN/A
10:00 AM72 °FSunny.8 mph38%29.65 "Hg10 mi
9:00 AM68 °FSunny.6 mph46%29.68 "Hg10 mi
8:30 AM64 °FSunny.2 mph56%29.68 "Hg10 mi
8:00 AM63 °FSunny.6 mph64%29.68 "Hg10 mi
7:30 AM63 °FPartly sunny.1 mph64%29.68 "HgN/A
7:00 AM64 °FBroken clouds.9 mph64%29.68 "HgN/A
6:00 AM63 °FPassing clouds.9 mph68%29.65 "HgN/A
5:30 AM63 °FPassing clouds.7 mph68%29.65 "HgN/A
5:00 AM64 °FPassing clouds.8 mph60%29.65 "HgN/A
4:00 AM64 °FPassing clouds.7 mph68%29.68 "HgN/A
Weather by CustomWeather, © 2016

See weather overviewHow to use our weather pages